This is the latest recevied weather packets stored in our database for station/object AC1IX. If no packets are shown the sender has not sent any weather packets the latest 10 day(s).
| Time | Temp. | Humidity | Pressure | Rain* | Wind** | Luminosity | Snow |
|---|---|---|---|---|---|---|---|
| 1777514425 | 13.89° C | 66% | 1009.6 hPa | 0 mm | - | 0 W/m² | - |
| 1777514120 | 13.89° C | 66% | 1009.4 hPa | 0 mm | - | 0 W/m² | - |
| 1777513818 | 13.89° C | 66% | 1009.5 hPa | 0 mm | - | 0 W/m² | - |
| 1777513515 | 13.89° C | 66% | 1009.8 hPa | 0 mm | - | 0 W/m² | - |
| 1777513212 | 13.89° C | 65% | 1009.8 hPa | 0 mm | - | 0 W/m² | - |
| 1777512908 | 13.89° C | 65% | 1009.8 hPa | 0 mm | - | 0 W/m² | - |
| 1777512605 | 13.89° C | 66% | 1009.6 hPa | 0 mm | - | 0 W/m² | - |
| 1777511998 | 13.89° C | 65% | 1009.9 hPa | 0 mm | - | 0 W/m² | - |
| 1777511696 | 13.89° C | 66% | 1009.7 hPa | 0 mm | - | 0 W/m² | - |
| 1777511394 | 14.44° C | 66% | 1009.8 hPa | 0 mm | - | 0 W/m² | - |
| 1777510178 | 14.44° C | 65% | 1009.8 hPa | 0 mm | - | 0 W/m² | - |
| 1777509570 | 15° C | 64% | 1009.7 hPa | 0 mm | - | 0 W/m² | - |
| 1777509267 | 15° C | 64% | 1009.7 hPa | 0 mm | - | 0 W/m² | - |
| 1777508965 | 15° C | 64% | 1009.7 hPa | 0 mm | - | 0 W/m² | - |
| 1777508662 | 15° C | 64% | 1009.6 hPa | 0 mm | - | 0 W/m² | - |
| 1777508359 | 15° C | 63% | 1009.6 hPa | 0 mm | - | 0 W/m² | - |
| 1777508056 | 15° C | 63% | 1009.5 hPa | 0 mm | - | 0 W/m² | - |
| 1777507753 | 15° C | 62% | 1009.3 hPa | 0 mm | - | 0 W/m² | - |
| 1777506845 | 15.56° C | 61% | 1009.7 hPa | 0 mm | - | 0 W/m² | - |
| 1777505934 | 15.56° C | 60% | 1009.6 hPa | 0 mm | - | 2 W/m² | - |
| 1777505629 | 15.56° C | 61% | 1009.9 hPa | 0 mm | - | 2 W/m² | - |
| 1777505023 | 15.56° C | 59% | 1009.8 hPa | 0 mm | - | 8 W/m² | - |
| 1777502904 | 16.67° C | 58% | 1010 hPa | 0 mm | - | 29 W/m² | - |
| 1777502300 | 16.67° C | 57% | 1010.1 hPa | 0 mm | - | 39 W/m² | - |
| 1777501995 | 16.67° C | 57% | 1010.2 hPa | 0 mm | - | 59 W/m² | - |
* Rain latest hour (hover to see other rain measurements)
** Current wind speed in m/s (hover to see current wind gust speed)